Temperature
34 34 33 34 34 34 34 34 34 34 35 34 33 32 32 31 30 29 28 27 26 26 25 24 23 22 21 21 20 20 20 19 19 19 19 19 19 19 19 19 19 18 18 18
34 33 34 35 35 34 34 34 34 34 34 34 33 32 32 32 31 30 29 28 27 26 25 24 23 22 22 21 20 20 20 20 20 19 19 19 19 19 19 19 19 19 18 18
33 34 35 35 35 34 34 34 34 34 34 34 33 32 32 32 32 31 30 29 28 27 26 24 23 23 22 21 21 20 20 20 20 20 19 19 19 19 19 19 19 19 18 18
34 35 35 34 34 34 34 35 35 34 33 32 32 30 31 32 32 32 31 30 29 28 26 25 24 23 22 22 21 21 20 20 20 20 20 19 19 19 19 19 19 19 19 19
34 34 34 34 34 34 35 35 35 34 33 32 32 31 31 33 32 32 32 31 30 29 27 26 25 24 23 22 21 21 21 21 20 20 20 19 19 19 19 19 19 19 19 19
34 35 35 35 35 35 35 35 34 34 33 31 32 32 31 33 33 33 32 32 31 29 28 27 25 24 23 23 22 21 21 21 21 20 20 20 19 19 19 19 19 19 18 18
33 34 35 35 35 35 34 33 31 31 31 31 33 33 32 33 34 34 33 32 31 30 29 27 26 25 24 23 22 22 21 21 21 20 20 20 19 19 19 19 19 19 18 18
31 32 34 35 34 34 33 33 31 30 30 32 33 32 33 35 34 34 33 32 31 30 29 28 26 25 24 23 23 22 21 21 21 21 20 20 19 19 19 19 19 18 18 18
32 32 34 35 35 34 33 33 34 32 31 31 32 33 34 35 34 34 33 32 31 30 29 28 27 26 25 24 23 22 22 21 21 21 20 20 20 19 19 19 18 18 18 18
33 32 34 35 35 35 34 34 33 32 30 29 31 32 33 33 33 33 33 32 31 30 29 28 27 26 25 24 23 22 22 21 21 20 20 20 20 19 19 19 18 18 18 18
33 32 33 33 33 33 33 33 33 33 32 30 30 31 34 33 33 33 33 32 31 31 30 28 27 26 25 24 23 22 22 21 20 20 20 20 19 19 19 19 18 18 18 18
32 32 31 33 34 34 34 33 33 32 31 31 30 31 34 34 34 33 33 32 31 30 29 28 27 26 25 24 23 22 22 21 20 20 20 20 19 19 19 19 18 18 18 18
31 30 30 31 32 33 33 33 33 33 32 31 31 31 34 34 34 33 33 31 30 29 29 28 27 26 25 24 23 22 22 21 20 20 20 19 19 19 19 18 18 18 18 17
30 30 30 30 31 32 32 33 33 33 31 31 32 32 32 33 33 33 32 31 30 29 28 27 26 25 24 24 23 22 22 21 21 20 20 19 19 19 19 18 18 18 17 17
30 29 30 31 32 33 33 33 33 33 32 32 32 33 33 32 33 32 31 31 30 28 27 26 25 24 24 23 23 22 22 21 21 20 20 19 19 19 19 18 18 18 17 17
29 28 29 30 31 32 32 33 33 33 33 33 33 33 33 33 32 31 31 30 29 28 27 26 25 24 23 23 22 22 21 21 21 20 20 19 19 18 18 18 18 17 17 17
28 27 27 28 30 31 31 32 33 33 33 33 32 32 32 32 31 31 30 29 29 28 27 26 25 24 23 22 22 22 21 21 20 20 19 19 19 18 18 18 18 17 17 17
26 26 27 28 28 28 31 33 33 33 33 33 33 33 32 31 31 30 30 29 28 27 27 26 24 24 23 22 22 22 21 21 20 20 19 19 18 18 18 17 17 17 17 17
27 26 26 27 27 28 31 32 33 32 31 33 32 32 32 31 30 30 29 28 27 27 26 25 24 24 23 22 22 21 21 20 20 20 19 19 19 18 18 17 17 17 17 17
27 26 26 26 27 27 30 32 33 32 30 32 32 31 31 31 30 29 28 27 27 26 25 25 24 23 22 22 22 21 21 20 20 20 19 19 18 18 18 18 18 17 17 17
25 25 25 25 26 28 31 32 32 29 29 30 31 30 29 29 29 28 27 26 26 25 24 24 23 23 22 22 21 21 20 20 20 20 19 19 18 18 18 18 18 17 17 16
25 25 25 25 26 27 30 31 29 28 29 29 29 29 29 28 28 27 26 25 25 24 24 23 23 22 21 21 21 20 20 20 20 19 19 19 18 18 18 17 17 17 17 16
26 26 27 26 27 27 28 28 27 27 28 28 28 28 27 27 27 26 25 24 24 23 23 22 22 21 21 21 21 20 20 20 19 19 19 18 18 18 17 17 17 17 16 16
26 27 26 26 26 27 26 26 26 26 26 27 27 27 27 26 26 25 24 24 23 22 22 22 21 21 20 20 20 20 20 19 19 19 18 18 18 17 17 17 17 16 16 16
25 26 26 25 25 26 26 26 25 26 26 26 26 26 26 25 25 24 23 23 22 21 21 21 20 20 20 20 20 19 19 19 19 18 18 18 18 17 17 17 16 16 16 16
24 24 24 24 24 24 24 24 24 24 25 25 25 25 25 24 24 23 23 22 21 21 20 20 20 20 20 20 19 19 19 19 18 18 18 18 17 17 17 17 16 16 16 16
Wind_Speed
11 11 10 9 9 8 5 4 4 6 7 5 6 10 13 14 13 14 14 14 13 13 13 12 11 11 10 9 8 7 6 4 3 3 2 2 2 2 1 2 2 1 2 1
12 13 10 8 8 8 8 6 5 6 7 4 4 7 10 12 13 14 14 15 15 14 14 13 12 11 11 10 9 7 6 6 4 3 2 2 2 2 2 1 3 2 2 1
15 10 10 10 10 9 9 7 5 5 5 5 5 5 9 12 11 13 14 14 15 16 15 15 13 12 11 11 10 8 7 6 5 4 3 2 2 1 1 1 2 2 2 1
14 12 10 10 11 10 9 7 6 5 5 4 6 4 9 12 12 12 13 14 15 16 16 16 15 13 12 12 11 8 7 6 6 5 4 4 3 2 2 1 2 1 2 2
13 13 12 13 11 11 7 6 7 8 7 6 6 4 6 12 12 13 13 14 15 16 17 17 16 14 13 12 12 10 8 7 6 5 4 4 3 2 1 1 1 2 2 2
14 13 13 13 11 10 8 8 9 10 8 7 7 5 5 8 10 12 13 13 14 15 16 16 15 13 12 12 11 11 9 7 7 6 5 4 3 3 2 1 1 2 1 1
16 15 13 11 13 12 10 9 7 8 8 7 8 5 4 7 8 9 11 12 13 14 15 15 15 15 13 12 11 10 10 8 7 7 5 4 4 3 2 2 1 1 1 1
16 16 15 13 13 10 12 13 10 8 7 6 6 5 5 9 10 9 9 10 12 13 13 14 15 14 13 13 11 10 10 9 8 7 5 4 4 3 2 2 1 1 1 0
13 15 15 14 13 13 13 14 14 12 10 8 6 6 8 10 11 11 10 9 10 12 13 14 14 14 13 13 12 11 10 9 8 7 6 5 4 3 2 2 1 0 1 1
12 11 14 14 12 15 15 13 10 10 7 8 8 7 8 11 10 9 9 10 9 11 12 13 13 13 12 12 11 11 10 9 7 7 6 6 4 3 2 1 2 1 2 2
17 13 12 14 15 16 15 15 11 8 8 9 7 4 3 10 10 10 10 9 9 10 11 11 11 12 12 12 11 11 10 9 8 7 5 4 5 5 3 2 2 1 2 2
14 13 13 15 15 14 14 14 13 9 7 7 8 5 3 7 9 9 10 10 10 9 10 11 11 11 11 11 11 11 10 10 9 8 7 6 5 5 4 4 3 2 2 3
10 10 12 14 14 16 16 15 14 12 10 9 10 5 6 7 8 9 9 10 10 9 9 10 10 9 10 10 9 10 10 10 9 9 8 7 6 6 5 4 3 3 3 3
8 11 14 15 13 14 16 17 16 14 11 11 11 7 4 5 6 8 9 10 11 10 9 9 9 8 8 8 8 9 9 9 9 9 9 8 7 6 6 5 4 3 3 3
9 13 16 17 16 14 15 17 17 17 15 14 12 9 7 7 7 9 9 9 11 12 11 10 9 8 8 8 7 7 7 8 8 9 8 8 7 6 5 5 4 4 3 4
8 10 15 17 19 17 16 17 17 17 16 16 14 8 3 5 7 8 8 8 9 10 10 11 10 9 9 9 8 8 7 8 8 8 8 7 7 7 6 5 4 4 3 3
10 9 12 16 18 18 19 17 17 16 15 15 13 7 3 4 5 7 8 7 8 9 10 10 9 9 8 8 8 8 8 8 8 8 8 8 8 7 6 6 5 4 4 3
7 7 9 14 15 19 16 15 15 15 13 11 10 7 5 7 6 6 7 6 6 7 8 8 9 9 8 8 8 7 8 8 8 7 8 8 8 8 6 6 5 4 4 3
10 8 10 13 16 17 15 14 14 13 11 10 9 7 5 6 5 6 5 6 5 6 6 6 8 8 8 8 9 8 8 8 8 8 8 8 8 8 7 7 6 5 4 4
13 10 11 12 15 16 13 12 10 10 10 8 7 4 4 4 5 4 3 5 6 6 5 5 7 7 7 7 7 8 8 8 8 7 7 7 7 7 7 7 6 5 4 4
16 14 16 16 15 13 9 8 9 12 6 2 4 4 4 3 2 2 4 6 6 6 6 6 6 6 6 6 6 7 7 7 7 7 6 6 7 7 7 7 6 6 5 5
16 15 15 15 15 11 6 6 6 1 2 1 0 2 2 1 2 3 4 5 6 6 6 6 6 6 5 6 6 6 6 6 6 6 6 6 6 7 7 7 6 6 6 6
14 12 10 9 8 1 3 2 4 4 3 1 0 1 2 2 3 4 5 5 5 5 5 5 6 6 6 5 5 6 5 5 6 6 6 6 6 5 6 7 7 7 7 7
10 8 8 5 4 3 1 1 3 3 3 2 1 2 2 2 3 3 4 4 5 4 5 5 6 6 6 5 4 4 5 5 6 6 6 6 6 6 6 6 7 7 7 6
5 7 8 7 4 2 3 2 2 2 2 3 2 2 2 2 3 3 3 4 4 4 4 5 5 5 5 6 5 5 5 6 6 6 6 6 6 6 5 5 3 5 3 4
6 5 6 5 2 4 3 2 2 2 3 3 3 2 1 1 2 3 4 3 3 4 4 4 5 5 5 6 6 5 6 6 6 6 6 6 6 6 6 5 3 0 2 5
Wind_Direction
219 230 229 219 210 223 225 221 176 140 144 151 147 147 157 164 168 165 168 169 168 168 164 163 164 159 156 155 155 161 168 161 174 181 193 185 198 211 189 176 159 166 222 184
221 225 230 231 229 230 232 223 200 154 154 172 167 158 161 170 177 173 173 172 171 168 166 165 165 165 163 161 162 166 170 172 185 189 205 195 202 208 190 181 144 185 217 227
227 221 215 224 233 230 232 231 222 192 176 192 186 178 173 184 183 174 175 176 175 173 172 171 173 174 171 169 171 179 177 172 184 188 197 214 202 248 190 162 157 197 216 210
231 229 228 225 231 235 231 237 240 225 224 227 214 185 184 181 183 183 179 178 178 176 175 175 177 178 177 173 173 172 170 172 179 188 204 211 211 213 228 197 173 202 227 227
227 221 227 231 225 235 240 240 249 243 243 249 243 216 193 179 183 185 183 181 179 177 176 177 179 177 179 177 173 172 168 172 176 191 208 223 228 220 224 204 177 213 219 227
239 224 226 231 228 230 241 242 250 253 250 244 240 237 187 179 179 176 178 179 179 177 174 173 173 171 178 178 173 170 168 173 177 186 200 207 225 243 248 240 196 218 226 249
230 230 224 227 229 219 224 234 242 242 236 237 229 230 181 162 162 162 167 173 174 173 172 171 171 171 177 177 172 169 167 173 178 183 195 194 212 231 232 233 218 238 255 235
217 221 216 217 227 222 222 229 237 247 250 238 218 209 168 144 143 145 153 162 165 167 172 172 171 171 176 175 171 169 166 171 176 180 189 189 201 213 215 229 255 238 270 224
220 221 205 211 222 227 227 235 242 252 263 267 231 186 167 154 147 145 153 158 163 168 170 168 169 172 174 174 171 170 163 165 171 178 179 176 183 195 198 180 222 252 309 84
244 235 215 202 217 228 235 236 244 248 263 269 261 219 188 162 157 154 153 149 159 164 162 163 168 171 170 168 162 162 160 161 166 171 179 171 169 171 177 126 125 59 59 66
237 241 225 206 212 223 222 232 240 255 258 251 262 269 167 158 160 154 152 152 157 160 158 159 165 166 161 161 159 156 157 157 162 165 165 161 159 154 145 138 124 111 74 82
231 242 235 222 215 224 234 234 233 240 251 267 270 259 184 148 152 155 151 149 149 150 154 154 157 158 155 156 158 158 160 163 165 164 161 160 145 146 148 140 123 126 119 104
234 243 239 224 217 214 229 233 237 240 246 248 253 230 173 155 157 149 143 140 139 140 142 141 141 145 150 154 155 159 163 166 166 165 163 157 153 149 149 148 144 139 127 115
251 242 244 232 224 211 218 227 229 234 242 244 244 225 181 166 156 144 142 143 143 141 139 141 139 144 148 150 154 160 165 164 162 161 161 160 161 156 153 151 149 148 141 127
238 238 244 252 254 239 221 222 226 229 238 247 250 236 198 176 162 146 147 150 149 149 150 149 147 145 151 153 156 161 162 159 157 157 159 158 157 153 153 153 149 143 146 145
232 250 250 249 253 251 240 226 229 232 234 244 252 256 195 162 154 144 149 154 152 153 156 154 155 156 161 163 165 165 165 158 158 161 160 156 159 160 160 158 150 146 147 133
219 235 247 246 243 247 243 234 232 233 237 243 246 235 195 157 165 148 148 156 159 161 159 157 159 162 165 164 163 165 163 160 163 164 163 164 167 167 168 167 157 158 153 148
242 245 240 245 247 242 243 241 239 234 235 241 248 238 198 176 174 157 156 157 159 155 158 158 162 164 163 163 162 163 165 165 167 171 173 171 170 169 165 162 163 161 155 156
223 230 237 240 241 242 244 237 239 235 230 237 245 240 214 184 167 170 162 160 161 158 151 157 164 164 160 161 162 165 170 169 172 178 178 174 170 169 171 170 169 164 163 170
216 218 232 237 240 241 241 235 230 230 228 232 236 230 212 185 201 189 140 146 146 138 141 148 156 155 154 157 161 169 176 177 178 177 177 171 172 175 175 172 170 168 171 176
208 210 223 237 243 245 248 234 221 226 222 235 226 188 210 210 221 130 128 129 132 133 140 143 144 148 151 157 163 173 178 181 177 171 169 172 174 176 174 169 172 174 181 183
209 210 215 229 239 242 261 230 224 198 61 67 258 208 221 165 125 119 120 127 136 141 143 145 140 145 148 159 167 175 181 176 167 165 168 174 176 188 180 171 178 179 183 184
217 218 218 221 228 282 358 40 53 49 38 39 250 200 212 183 151 140 135 137 143 144 146 151 150 151 157 163 171 180 179 171 169 172 176 175 179 187 176 178 185 188 194 200
217 223 224 217 213 242 333 23 49 35 8 324 267 197 201 165 151 141 143 146 148 153 155 158 161 165 165 166 171 172 165 165 168 173 174 175 179 189 188 191 196 202 203 204
237 222 222 221 215 248 283 11 20 354 335 310 287 224 213 195 169 161 152 147 153 161 165 169 168 170 168 163 168 168 162 165 174 181 182 182 190 194 195 198 216 215 212 202
258 248 231 226 212 234 258 322 340 321 295 291 278 252 236 222 177 167 160 156 158 163 163 179 179 179 177 174 175 170 167 173 181 190 191 190 193 193 195 194 195 95 159 158
Height
1485 1486 1487 1483 1480 1482 1483 1488 1492 1489 1486 1490 1496 1501 1504 1509 1513 1517 1522 1527 1531 1534 1538 1541 1543 1545 1546 1548 1549 1550 1551 1552 1554 1555 1555 1556 1557 1558 1558 1558 1558 1558 1558 1558
1484 1486 1480 1477 1477 1480 1482 1488 1489 1486 1485 1490 1496 1499 1500 1505 1508 1513 1518 1523 1527 1532 1536 1539 1542 1544 1545 1546 1548 1549 1550 1551 1552 1553 1554 1556 1556 1557 1558 1558 1558 1557 1558 1557
1483 1479 1476 1478 1479 1482 1482 1485 1486 1489 1486 1488 1496 1504 1502 1502 1505 1509 1514 1518 1523 1528 1532 1536 1539 1541 1543 1545 1546 1548 1549 1550 1551 1552 1553 1555 1555 1556 1557 1557 1557 1557 1557 1556
1477 1474 1475 1478 1480 1480 1487 1477 1480 1485 1494 1501 1498 1518 1504 1500 1502 1505 1509 1514 1519 1524 1529 1533 1536 1539 1541 1543 1545 1546 1547 1549 1550 1551 1552 1553 1554 1555 1555 1556 1556 1555 1555 1555
1476 1473 1476 1480 1478 1478 1480 1476 1479 1483 1491 1501 1498 1509 1507 1495 1501 1501 1504 1509 1514 1519 1524 1528 1532 1536 1539 1541 1543 1544 1546 1547 1548 1549 1550 1551 1553 1554 1554 1554 1554 1554 1554 1554
1471 1470 1471 1473 1473 1475 1476 1479 1481 1483 1490 1510 1500 1506 1509 1494 1494 1495 1500 1505 1510 1515 1520 1525 1529 1533 1537 1540 1542 1543 1544 1545 1546 1547 1548 1549 1551 1552 1552 1553 1553 1552 1552 1552
1477 1471 1469 1471 1475 1475 1479 1492 1509 1514 1513 1511 1490 1497 1499 1485 1485 1490 1496 1501 1506 1511 1517 1522 1527 1530 1534 1537 1539 1541 1542 1543 1544 1546 1547 1548 1549 1550 1550 1551 1551 1551 1551 1551
1485 1484 1470 1469 1474 1479 1481 1489 1512 1525 1521 1506 1491 1497 1488 1478 1483 1488 1494 1498 1504 1509 1514 1519 1523 1527 1531 1534 1537 1539 1540 1541 1542 1544 1545 1546 1547 1548 1549 1549 1549 1549 1549 1549
1476 1479 1465 1467 1469 1473 1482 1484 1480 1495 1501 1509 1498 1491 1483 1477 1482 1487 1492 1497 1502 1507 1511 1516 1521 1525 1529 1532 1534 1536 1537 1539 1540 1542 1543 1544 1545 1546 1547 1547 1548 1548 1548 1548
1466 1477 1466 1465 1469 1470 1473 1476 1484 1496 1514 1525 1509 1498 1492 1484 1483 1485 1490 1495 1501 1505 1509 1513 1518 1522 1526 1530 1532 1535 1536 1537 1539 1540 1541 1542 1543 1544 1545 1546 1546 1547 1547 1546
1463 1475 1472 1468 1474 1476 1476 1478 1481 1487 1493 1512 1521 1507 1476 1478 1480 1484 1490 1494 1500 1504 1508 1512 1516 1520 1524 1527 1530 1533 1535 1536 1537 1538 1539 1541 1541 1542 1543 1544 1545 1545 1545 1545
1464 1470 1476 1470 1463 1465 1469 1474 1479 1495 1500 1498 1508 1505 1473 1475 1479 1483 1488 1493 1498 1503 1507 1511 1515 1519 1522 1526 1528 1531 1533 1534 1535 1537 1538 1539 1540 1541 1542 1542 1543 1543 1544 1544
1466 1474 1486 1484 1477 1469 1472 1471 1472 1478 1487 1497 1506 1500 1474 1476 1478 1483 1487 1493 1498 1502 1507 1511 1514 1518 1521 1524 1527 1529 1531 1533 1534 1535 1536 1538 1539 1540 1540 1541 1542 1543 1543 1543
1469 1474 1481 1486 1477 1468 1474 1472 1471 1478 1490 1494 1492 1489 1479 1478 1479 1483 1488 1493 1498 1503 1507 1511 1514 1517 1520 1523 1525 1528 1530 1531 1533 1534 1535 1536 1537 1538 1539 1540 1541 1542 1542 1543
1469 1476 1473 1469 1462 1461 1465 1469 1470 1475 1478 1485 1482 1479 1478 1478 1479 1484 1489 1493 1498 1502 1507 1510 1513 1516 1519 1522 1524 1526 1528 1530 1531 1533 1534 1535 1536 1537 1538 1539 1540 1541 1541 1542
1471 1476 1475 1474 1465 1462 1465 1464 1466 1469 1471 1474 1475 1476 1472 1475 1479 1484 1489 1493 1497 1502 1506 1509 1513 1515 1518 1520 1522 1524 1526 1528 1529 1531 1532 1534 1535 1536 1537 1538 1539 1540 1540 1541
1473 1480 1484 1481 1470 1468 1474 1464 1464 1467 1466 1469 1476 1475 1474 1477 1480 1484 1489 1493 1497 1501 1505 1508 1511 1514 1516 1518 1520 1522 1524 1526 1528 1529 1531 1532 1534 1535 1536 1537 1538 1538 1539 1540
1477 1481 1482 1481 1480 1492 1468 1454 1456 1461 1464 1464 1467 1469 1473 1477 1481 1485 1489 1493 1496 1500 1503 1507 1510 1512 1515 1516 1518 1520 1522 1524 1525 1527 1529 1530 1532 1533 1534 1535 1536 1537 1538 1538
1474 1480 1483 1483 1485 1479 1463 1455 1456 1462 1466 1464 1467 1469 1472 1477 1481 1485 1489 1492 1495 1499 1502 1505 1508 1511 1513 1514 1516 1518 1520 1522 1523 1525 1527 1528 1529 1531 1532 1533 1534 1535 1536 1537
1472 1477 1484 1482 1487 1485 1466 1452 1453 1460 1470 1465 1467 1470 1473 1476 1482 1485 1488 1491 1494 1498 1501 1504 1507 1509 1511 1513 1514 1516 1518 1520 1521 1523 1524 1526 1527 1529 1530 1531 1532 1534 1535 1535
1474 1478 1483 1483 1482 1470 1455 1453 1456 1473 1473 1466 1468 1471 1475 1477 1481 1486 1488 1490 1494 1497 1500 1503 1505 1507 1509 1511 1512 1514 1516 1517 1519 1521 1522 1524 1525 1526 1527 1529 1530 1532 1533 1534
1469 1474 1478 1479 1483 1476 1455 1454 1461 1466 1466 1467 1469 1472 1475 1478 1481 1484 1487 1490 1493 1496 1499 1501 1503 1505 1507 1508 1510 1511 1513 1515 1517 1518 1519 1521 1522 1524 1526 1527 1528 1529 1531 1532
1458 1461 1463 1467 1469 1463 1461 1461 1464 1466 1468 1469 1471 1473 1476 1479 1482 1485 1488 1490 1493 1496 1498 1500 1502 1504 1505 1506 1507 1509 1510 1512 1513 1515 1517 1518 1520 1521 1523 1524 1525 1527 1528 1529
1454 1455 1458 1462 1463 1463 1464 1465 1467 1468 1470 1471 1473 1475 1476 1479 1482 1484 1487 1490 1492 1494 1496 1498 1500 1501 1503 1504 1505 1506 1507 1509 1510 1512 1513 1515 1516 1518 1520 1521 1522 1524 1525 1526
1454 1455 1457 1461 1463 1465 1466 1467 1468 1469 1471 1472 1474 1475 1476 1479 1481 1484 1486 1488 1490 1492 1495 1496 1498 1499 1500 1501 1502 1503 1504 1506 1507 1509 1510 1512 1513 1514 1516 1517 1519 1520 1521 1523
1457 1458 1460 1463 1464 1466 1468 1469 1470 1471 1472 1473 1474 1474 1476 1478 1480 1482 1485 1487 1489 1491 1492 1494 1495 1496 1497 1498 1499 1500 1501 1502 1504 1505 1507 1508 1510 1511 1512 1514 1515 1516 1518 1519